Location: Isle of Man Observatory
(54.1776°N, 4.6264°W)
Time: 12:25:19
(UTC+01:00)

N. Korean satellite - Visible Passes

Search period start: 24 November 2017 00:00
Search period end: 04 December 2017 00:00
Orbit: 460 x 514 km, 97.2° (Epoch: 23 November)

Date Brightness Start Highest point End Pass type
(mag) Time Alt. Az. Time Alt. Az. Time Alt. Az.
24 Nov 9.9 07:05:03 10° NE 07:07:18 15° E 07:09:32 10° SE visible
24 Nov 8.1 17:48:05 10° E 17:50:27 17° ENE 17:52:50 10° NNE visible
24 Nov 7.1 19:20:03 10° S 19:23:35 60° W 19:27:12 10° NNW visible
25 Nov 7.0 08:13:58 10° NNE 08:17:44 72° ESE 08:21:30 10° S visible
25 Nov 6.4 18:56:30 10° SSE 19:00:04 76° ENE 19:03:44 10° N visible
25 Nov 10.0 20:32:35 10° WSW 20:34:07 12° W 20:35:39 10° WNW visible
26 Nov 8.2 07:50:35 10° NNE 07:54:10 41° E 07:57:44 10° S visible
26 Nov 6.9 18:33:12 10° SE 18:36:37 43° ENE 18:40:07 10° N visible
26 Nov 9.3 20:07:37 10° SW 20:10:22 20° W 20:13:09 10° NW visible
27 Nov 9.3 07:27:23 10° NE 07:30:31 24° E 07:33:39 10° SSE visible
27 Nov 7.6 18:10:11 10° ESE 18:13:15 26° ENE 18:16:21 10° N visible
27 Nov 8.3 19:43:22 10° SSW 19:46:40 34° W 19:50:03 10° NNW visible
28 Nov 9.9 07:04:32 10° NE 07:06:48 15° E 07:09:03 10° SE visible
28 Nov 8.1 17:47:31 10° E 17:49:56 17° ENE 17:52:22 10° NNE visible
28 Nov 7.1 19:19:30 10° S 19:23:03 60° W 19:26:43 10° NNW visible
29 Nov 7.0 08:13:27 10° NNE 08:17:14 72° ESE 08:20:59 10° S visible
29 Nov 6.4 18:55:55 10° SSE 18:59:31 76° ENE 19:03:13 10° N visible
29 Nov 10.0 20:31:56 10° WSW 20:33:34 13° W 20:35:13 10° WNW visible
30 Nov 8.2 07:50:03 10° NNE 07:53:39 40° E 07:57:13 10° S visible
30 Nov 6.9 18:32:36 10° SE 18:36:03 43° ENE 18:39:36 10° N visible
30 Nov 9.2 20:07:00 10° SW 20:09:47 21° W 20:12:38 10° NW visible
01 Dec 9.2 07:26:50 10° NE 07:29:59 24° E 07:33:06 10° SSE visible
01 Dec 7.6 18:09:35 10° ESE 18:12:40 26° ENE 18:15:49 10° N visible
01 Dec 8.3 19:42:44 10° SSW 19:46:05 34° W 19:49:31 10° NNW visible
02 Dec 9.9 07:03:59 10° NE 07:06:14 15° E 07:08:28 10° SE visible
02 Dec 8.1 17:46:54 10° E 17:49:20 17° ENE 17:51:49 10° NNE visible
02 Dec 7.1 19:18:52 10° S 19:22:27 61° WSW 19:26:10 10° NNW visible
03 Dec 7.0 08:12:51 10° NNE 08:16:39 71° ESE 08:20:24 10° S visible
03 Dec 6.5 18:55:16 10° SSE 18:58:55 76° ENE 19:02:39 10° N visible
03 Dec 9.9 20:31:14 10° WSW 20:32:57 13° W 20:34:41 10° WNW visible
